Probability
75 76 76 75 77 81 80 74 66 55 44 39 37 38 35 29 29 32 29 25 22 20 18 19 18 13 7 6 10 12 8 3 1 1 0 0 0 1 1 1 0 0 1
77 80 81 79 79 82 80 77 72 62 50 42 39 39 36 28 27 33 35 29 24 22 20 19 17 12 7 8 11 12 9 4 2 2 1 0 0 0 1 1 0 1 2
81 84 87 84 83 85 84 81 80 72 60 49 43 42 39 30 28 34 38 33 26 24 22 21 18 13 11 10 11 13 11 5 2 1 1 0 0 0 0 0 0 1 2
84 87 89 87 85 87 86 85 84 78 67 56 50 49 42 33 31 35 37 33 27 23 23 23 21 18 15 12 10 12 11 5 1 0 0 0 0 0 0 0 0 0 1
84 88 90 89 86 84 83 83 83 79 70 60 57 54 44 33 32 35 36 33 27 22 21 23 24 23 19 15 13 11 9 6 2 0 0 0 0 0 0 0 0 0 0
79 84 89 88 85 81 79 80 82 80 71 61 57 54 45 35 32 34 36 33 28 24 20 22 27 28 24 22 20 15 11 8 5 2 1 1 1 1 0 0 0 0 0
72 79 85 86 84 82 80 79 80 79 70 60 56 54 48 39 35 36 37 33 29 27 24 26 33 34 30 29 28 23 17 14 10 6 4 4 4 3 2 1 0 0 0
65 72 79 82 81 82 82 79 78 76 70 63 58 56 51 43 39 39 38 35 30 28 28 34 39 38 33 30 30 28 23 19 15 10 8 8 7 7 6 5 3 1 0
59 65 73 76 76 77 77 75 74 74 69 65 59 54 49 43 39 40 40 38 34 31 34 39 40 37 32 30 31 29 25 22 19 15 14 12 10 9 9 9 8 5 3
54 59 65 70 72 70 67 67 69 70 67 63 57 49 43 40 39 40 42 42 39 37 40 42 40 36 33 32 32 30 27 25 22 20 18 16 13 11 11 13 14 11 7
47 51 57 64 68 66 61 60 63 63 60 58 54 47 40 39 42 44 45 46 44 43 45 45 42 38 34 34 35 32 29 26 23 22 21 19 17 14 13 15 16 13 10
41 45 52 60 65 64 60 57 57 55 51 50 49 45 40 41 45 48 50 50 47 47 48 47 42 37 33 33 33 32 29 25 22 22 22 21 20 17 14 15 14 12 11
43 46 54 60 64 63 59 56 54 50 45 43 43 41 40 42 44 46 48 48 48 48 47 44 39 34 30 31 31 30 28 24 22 23 24 23 21 18 15 13 13 12 11
50 53 59 63 64 62 58 55 53 49 44 42 40 40 41 43 42 41 42 43 44 45 44 41 37 32 30 30 31 30 29 25 23 22 24 25 22 20 17 14 14 13 12
51 56 61 64 64 60 54 52 52 51 49 45 42 41 43 42 39 37 37 38 39 41 42 41 37 33 31 29 28 29 30 28 24 23 24 24 21 17 14 12 13 13 13
47 54 60 61 62 58 52 50 52 55 54 49 43 42 43 42 38 36 35 35 35 36 39 41 38 34 30 25 19 21 28 30 28 27 25 22 18 15 11 8 8 10 10
47 53 57 58 59 58 53 50 50 53 52 48 43 41 41 41 39 35 33 32 32 33 35 37 37 34 27 18 10 10 20 28 30 28 25 19 17 15 13 9 7 6 5
52 55 55 54 55 55 53 49 46 46 44 42 41 40 38 37 35 32 30 30 30 31 32 33 34 31 25 15 5 4 13 25 28 26 22 18 15 15 14 13 11 8 6
55 56 54 52 52 51 49 46 42 39 38 38 38 38 35 33 32 30 30 30 31 32 31 31 32 30 24 14 5 4 13 24 28 26 21 17 15 12 10 12 15 13 11
52 53 53 51 50 48 45 42 39 38 38 38 38 36 32 31 30 29 29 31 34 35 33 31 31 29 23 13 5 5 14 23 26 26 21 15 12 9 6 8 13 14 13
47 47 48 48 47 45 44 42 40 39 38 39 37 33 30 29 29 30 30 32 34 34 33 32 30 26 20 12 5 4 10 17 20 20 17 11 6 3 2 4 9 10 10
44 42 42 43 42 43 45 43 40 39 37 36 33 29 27 26 27 30 32 33 34 33 32 31 29 24 19 12 4 2 4 8 11 12 10 6 2 0 0 1 3 3 3
42 39 38 38 39 42 43 41 40 38 35 32 30 28 26 25 26 28 29 30 30 30 30 29 26 22 19 12 5 1 0 2 5 6 4 2 0 0 0 0 0 0 1
35 34 33 34 35 36 37 38 38 37 34 30 30 29 27 25 24 23 22 22 22 23 24 24 20 17 16 12 6 2 0 0 1 2 2 1 1 1 1 1 1 1 2
27 27 27 28 28 29 30 32 34 34 32 30 29 29 28 24 20 17 14 12 12 13 14 15 13 12 10 8 6 3 1 0 0 1 2 2 2 2 2 3 3 2 2
24 24 23 22 23 24 25 27 30 31 31 30 28 27 27 24 18 13 10 7 6 6 6 7 8 8 6 3 3 2 1 0 0 1 3 3 3 2 1 2 2 1 1
Wind_Speed
17 16 16 15 15 13 12 11 10 10 8 6 6 5 5 4 3 4 6 6 5 5 3 3 4 2 2 2 3 2 3 2 2 1 1 1 2 3 3 3 3 4 5
17 17 16 15 15 14 13 12 11 11 10 6 5 4 5 4 4 3 5 6 5 5 5 3 3 3 2 2 2 2 1 2 2 2 1 1 1 2 4 3 4 4 4
19 18 17 16 16 15 15 13 12 11 10 8 6 5 4 3 4 5 5 5 6 5 3 5 3 3 3 3 3 3 3 1 1 1 1 1 2 2 2 4 3 3 3
19 18 17 16 16 15 14 12 12 11 10 9 8 8 7 6 5 5 5 6 6 6 5 5 4 3 3 4 4 4 3 2 2 1 1 1 1 1 1 2 3 5 4
19 19 18 17 16 15 14 12 12 11 11 10 9 8 7 6 4 5 7 6 6 6 6 5 4 4 3 4 3 3 3 2 2 2 2 2 2 2 2 2 2 3 4
17 18 17 16 14 14 14 13 13 11 11 11 10 9 8 7 7 7 7 6 5 5 6 6 5 5 4 3 3 3 4 3 2 1 1 1 2 2 2 2 3 3 3
15 16 17 16 15 15 14 13 13 12 12 12 10 10 8 7 7 7 7 7 6 6 6 6 5 5 4 4 4 4 3 4 4 3 2 2 2 1 1 1 2 2 2
14 16 16 16 15 15 14 13 13 12 12 12 10 9 8 7 6 7 7 7 5 6 7 7 6 6 6 6 5 4 5 4 4 5 4 2 3 2 2 1 1 1 1
14 15 16 16 15 15 14 14 13 12 12 11 10 9 9 8 7 7 6 5 5 5 7 8 7 6 6 5 5 4 4 4 4 4 4 3 3 2 2 1 1 1 2
13 14 12 14 13 13 13 12 12 11 11 10 9 9 9 8 7 6 7 6 6 5 6 7 7 6 6 6 5 5 5 5 5 4 4 3 3 2 2 2 2 1 1
13 14 13 13 13 12 12 11 11 10 10 10 9 8 8 8 8 7 7 6 5 6 6 7 7 7 6 6 6 6 6 6 6 5 5 5 4 3 3 2 2 2 1
11 12 13 13 12 12 11 11 10 10 10 9 8 8 8 8 8 8 7 7 7 6 6 7 7 7 7 7 7 7 7 7 7 6 5 5 5 5 3 2 2 2 2
9 10 10 11 11 10 10 10 10 9 9 9 9 8 8 8 8 8 7 6 7 7 7 7 7 8 7 7 8 7 7 7 7 7 6 6 5 5 4 4 3 2 2
8 9 8 8 9 9 9 9 9 9 8 8 8 8 8 8 7 7 7 7 7 7 7 7 7 7 7 7 8 8 7 6 6 6 5 6 5 5 5 5 4 3 2
10 10 9 8 8 8 7 8 8 7 7 8 7 7 7 7 7 6 7 7 7 8 7 7 7 7 7 8 8 8 8 7 6 6 6 6 6 7 5 5 4 4 3
11 11 10 9 8 8 7 7 7 7 7 7 7 6 6 6 6 6 6 6 6 6 6 7 7 8 8 8 9 8 6 6 7 6 6 6 8 8 8 7 5 4 4
10 11 10 9 8 8 7 6 6 6 6 6 6 6 6 6 6 6 5 6 6 6 7 7 7 7 6 8 9 9 6 6 6 6 6 7 8 9 7 8 8 6 7
10 10 9 9 8 7 7 6 6 6 6 6 6 6 6 6 6 6 6 6 5 5 5 6 6 6 7 9 9 9 7 6 5 6 6 6 4 5 5 6 6 6 5
8 8 9 9 7 7 6 6 6 6 6 6 5 5 6 6 6 6 6 5 5 5 5 5 6 7 6 9 9 9 6 5 6 6 5 5 5 5 5 4 4 3 3
6 6 7 8 7 5 5 4 5 5 5 5 5 4 4 4 5 5 5 5 5 5 5 5 6 6 6 8 10 10 5 5 5 4 3 3 4 4 5 4 3 4 3
7 7 7 7 5 4 4 3 3 3 3 3 3 3 3 3 3 3 4 4 4 4 4 4 3 3 4 6 9 10 5 4 4 3 3 2 5 6 5 5 3 4 3
8 8 7 6 5 4 4 3 2 1 1 2 2 2 2 2 3 2 2 3 3 3 3 2 2 1 2 3 6 9 8 3 2 2 2 2 5 6 6 4 3 3 2
7 7 7 7 5 4 4 3 2 2 2 2 2 2 2 1 2 2 2 1 1 2 2 2 2 1 1 3 5 7 6 4 2 1 3 4 5 5 4 4 3 3 2
7 7 7 6 6 5 4 4 3 2 3 3 3 3 3 3 4 3 2 2 1 1 1 1 2 2 2 3 3 4 4 4 3 2 3 4 4 3 2 2 2 2 1
7 7 6 6 6 5 5 4 3 3 3 3 3 3 4 4 5 6 5 4 5 3 2 2 2 2 3 2 4 4 3 3 4 4 3 2 2 2 1 1 1 1 1
7 8 7 7 6 6 6 5 4 3 3 3 3 3 3 4 4 5 7 12 10 11 12 10 7 6 8 8 9 9 9 8 6 5 3 2 1 1 1 1 1 1 1
Wind_Direction
171 167 168 167 167 165 165 169 169 163 167 171 179 180 177 180 173 161 156 164 177 176 199 158 154 191 158 158 156 147 166 198 166 129 108 220 182 182 169 185 166 176 172
168 167 168 170 171 170 170 172 173 171 177 176 176 181 170 180 176 168 157 172 178 176 188 157 176 170 159 167 157 157 179 208 173 156 146 180 271 247 198 175 186 180 169
171 170 173 175 176 176 176 178 176 175 180 171 175 182 159 188 173 160 168 181 179 186 195 168 184 169 180 175 185 179 192 212 198 194 156 155 195 208 213 204 183 166 177
170 172 175 177 180 178 177 175 175 176 178 175 183 183 182 192 186 171 170 180 186 190 192 180 181 185 188 165 198 191 192 198 217 206 192 186 172 176 190 228 193 182 186
172 173 177 178 179 177 177 176 175 177 178 184 190 190 193 192 183 172 169 179 186 195 195 183 180 192 201 174 186 162 191 201 213 214 201 204 196 225 189 204 206 204 189
172 170 173 171 175 176 177 177 176 178 181 188 192 197 200 193 189 179 174 183 182 196 201 187 184 193 198 183 184 183 195 208 221 244 255 214 199 214 207 200 199 199 203
167 166 168 169 173 176 177 175 175 180 183 191 196 197 201 197 196 185 184 190 188 192 195 194 185 193 194 193 188 192 206 199 199 216 245 258 245 222 220 211 227 209 199
165 167 168 169 174 176 174 175 177 181 184 190 194 194 196 199 201 197 192 196 199 191 183 185 186 192 195 201 190 199 204 200 201 216 216 246 258 240 244 231 229 253 239
168 167 170 171 174 175 175 179 178 181 185 189 190 192 192 200 204 192 194 198 197 192 179 183 185 190 196 201 187 206 210 189 199 219 216 227 254 242 247 254 234 219 252
169 165 169 168 170 171 172 176 177 182 185 187 191 192 193 197 196 194 198 198 197 195 179 183 186 192 196 198 199 208 206 201 202 209 216 216 253 253 236 240 245 238 233
169 166 167 167 165 167 169 172 176 179 183 188 193 193 190 194 196 200 197 195 195 191 191 190 190 194 202 201 202 211 206 205 210 218 211 208 231 256 262 247 233 226 219
167 163 163 161 164 166 166 170 176 181 185 188 190 194 193 195 198 201 198 193 196 197 196 194 197 201 203 203 206 216 212 209 210 214 218 212 217 220 248 258 255 236 209
153 153 151 154 157 161 163 168 175 178 182 185 189 194 196 199 202 201 197 195 195 198 199 197 203 207 205 204 207 211 218 214 215 212 210 213 217 211 220 233 248 255 247
137 137 137 146 150 154 157 164 171 174 179 181 187 193 195 199 201 197 195 198 199 201 204 203 205 208 208 209 210 209 215 213 218 217 209 210 211 209 213 224 223 233 247
140 138 141 142 146 148 152 158 167 172 176 177 188 192 192 193 196 196 198 199 202 206 205 207 208 209 211 215 213 210 210 207 213 216 213 215 208 209 208 223 217 224 223
146 142 144 148 150 151 157 159 166 168 169 179 187 186 188 190 192 195 196 198 204 210 205 206 209 213 219 207 202 206 214 202 208 214 215 215 208 205 205 211 212 210 221
149 149 150 152 151 154 157 161 160 162 171 181 183 182 185 190 194 197 195 204 207 210 214 211 212 217 213 199 196 202 214 211 211 216 217 229 222 198 203 207 211 218 218
144 145 148 151 153 152 155 162 162 167 172 178 183 181 187 193 193 195 199 204 207 210 215 215 214 217 214 204 202 199 212 225 223 219 219 226 231 209 206 208 209 210 211
130 138 145 146 145 149 155 162 167 172 176 181 186 187 190 194 196 200 202 203 206 214 217 218 218 218 212 207 201 192 210 222 226 223 219 214 212 202 199 212 218 211 221
108 120 126 128 132 137 145 163 171 176 186 187 186 188 194 200 206 205 202 204 207 216 220 222 224 218 207 202 197 193 212 217 217 213 210 202 191 182 183 200 210 222 235
111 112 111 112 114 121 134 163 175 180 185 178 177 181 186 198 207 199 200 202 206 217 222 220 217 213 203 190 193 193 212 216 208 204 193 190 171 171 175 183 194 208 218
106 107 106 102 100 110 126 145 156 168 156 153 154 155 156 209 195 165 186 197 200 205 208 203 199 216 192 173 182 185 200 215 201 199 159 145 156 161 173 186 204 202 208
89 94 97 94 87 86 96 108 89 70 91 113 122 113 110 79 70 113 139 163 194 205 201 178 179 185 161 143 151 163 176 179 163 104 107 127 143 148 164 193 206 206 210
87 87 88 88 79 71 72 76 77 83 91 95 98 100 98 83 67 59 62 70 17 232 189 162 157 135 103 99 124 137 144 139 135 126 108 103 107 112 116 155 184 189 203
85 84 82 81 78 70 64 61 66 84 95 93 90 97 101 98 80 70 49 52 49 43 71 84 93 105 91 68 93 116 126 134 136 131 114 105 106 121 132 118 99 112 115
84 84 80 75 74 71 62 50 53 75 93 101 98 100 103 104 109 105 85 56 57 59 64 65 76 69 78 83 84 86 90 94 105 107 105 104 110 120 113 113 105 99 96